Location: *
(45.5667°S, 177.5167°W)
Time: 15:53:13
(UTC+00:00)

Cosmos 2061 Rocket - Pass Details

Date: 29 May 2022
Orbit: 966 x 1012 km, 82.9° (Epoch: 28 June)

Event Time Altitude Azimuth Distance (km) Brightness Sun altitude
Rises 05:56:13 0° 189° (S) 3,766 7.0 -16.7°
Reaches altitude 10° 05:58:47 10° 188° (S) 2,804 6.3 -17.2°
Maximum altitude 06:05:15 87° 100° (E) 1,008 4.0 -18.3°
Drops below altitude 10° 06:11:34 10° 7° (N) 2,738 6.4 -19.4°
Sets 06:14:03 0° 7° (N) 3,672 7.1 -19.8°
